Location: Exeidioux
(45.6312°N, 1.6819°E)
Time: 03:56:32
(UTC+00:00)

ERS-2 - Visible Passes

Search period start: 14 June 2021 00:00
Search period end: 24 June 2021 00:00
Orbit: 491 x 497 km, 98.5° (Epoch: 13 June)

Date Brightness Start Highest point End Pass type
(mag) Time Alt. Az. Time Alt. Az. Time Alt. Az.
14 Jun 4.5 20:38:27 10° N 20:41:33 27° WNW 20:44:39 10° SW visible
15 Jun 3.3 20:16:37 10° N 20:20:09 47° WNW 20:23:39 10° SW visible
17 Jun 5.3 21:08:15 10° NNW 21:10:16 14° WNW 21:12:17 10° W visible
18 Jun 4.7 20:45:58 10° NNW 20:48:56 24° WNW 20:51:54 10° WSW visible
19 Jun 3.6 20:24:04 10° N 20:27:32 41° WNW 20:30:59 10° SW visible
21 Jun 5.4 21:15:54 10° NNW 21:17:36 13° WNW 21:19:17 10° W visible
22 Jun 4.9 20:53:28 10° NNW 20:56:17 21° WNW 20:59:05 10° WSW visible
23 Jun 3.9 20:31:31 10° N 20:34:53 36° WNW 20:38:16 10° SW visible
